Theta_e
315 313 315 318 318 318 318 318 319 321 321 319 318 318 326 322 334 337 345 345 350 352 353 354 352 348 344 338 333 330 332 339 339 338 337 328 323 325 326 324 326 327 326 328 329 332 331 328 325
312 315 320 319 318 317 317 316 319 319 319 317 318 318 319 322 341 346 351 352 350 353 353 352 349 347 341 338 333 329 330 337 339 338 338 332 324 325 327 325 328 331 336 337 337 334 328 325 323
311 319 321 321 317 317 317 316 320 319 318 318 319 318 319 342 342 348 354 354 353 351 351 350 347 346 340 337 335 330 323 334 338 337 336 336 329 325 327 326 327 331 337 338 333 323 323 323 323
316 323 320 321 319 317 315 316 318 319 319 318 316 320 320 344 333 348 353 356 354 351 350 348 347 344 341 338 337 332 322 323 330 333 335 337 332 325 327 328 328 331 332 327 324 323 322 323 323
317 320 321 322 321 319 317 317 317 318 317 317 316 319 319 333 334 349 357 357 353 350 349 348 346 344 341 339 337 333 323 320 323 326 334 337 334 327 325 329 330 330 327 328 329 327 325 323 323
319 318 318 318 319 318 319 317 317 316 316 317 318 317 322 328 326 349 357 358 354 349 347 348 346 344 341 340 338 334 324 320 322 326 334 334 333 326 326 330 331 331 329 328 325 324 323 322 322
318 319 317 318 319 318 319 314 316 314 315 316 316 317 317 329 325 342 352 357 356 350 347 348 347 344 341 340 338 335 327 320 321 325 330 333 331 325 328 331 332 330 329 328 322 321 322 322 322
313 315 315 315 316 316 315 313 312 313 314 314 314 317 317 324 324 339 343 351 355 354 352 349 348 345 341 339 337 334 328 320 320 324 330 331 330 324 329 332 331 332 329 327 322 322 322 321 321
310 313 313 313 313 313 312 314 314 313 313 313 313 314 315 314 316 325 331 347 351 353 355 353 348 346 342 339 336 331 327 321 320 326 332 331 327 323 328 331 333 332 327 328 324 324 324 322 323
311 312 312 311 312 313 313 314 313 313 314 314 314 313 313 313 314 314 318 337 350 350 351 356 352 347 344 340 337 332 327 322 322 326 331 328 323 323 328 329 330 327 328 329 324 325 323 323 328
312 314 312 313 311 312 314 313 314 313 314 314 314 313 313 313 313 313 314 323 346 351 349 352 351 350 344 340 338 333 329 324 322 324 325 325 323 324 327 326 325 327 328 324 324 323 321 330 335
314 313 312 313 314 314 314 313 314 314 314 314 313 313 313 314 316 313 313 314 328 345 350 349 350 351 346 342 339 337 332 328 323 322 322 323 323 322 325 328 330 325 323 323 322 321 321 331 334
313 314 314 314 314 314 314 313 313 314 314 314 314 314 313 313 314 314 314 314 315 319 326 349 350 351 350 344 340 338 334 331 329 324 321 322 322 326 327 327 325 323 324 322 321 320 324 333 338
314 314 314 314 314 314 313 314 311 313 314 314 313 314 314 313 314 314 314 314 314 321 329 338 349 349 351 348 343 340 337 333 331 328 325 322 324 325 324 324 324 324 324 322 323 325 332 340 340
314 315 315 314 314 315 312 315 314 314 315 315 315 316 315 316 316 316 314 314 314 318 336 340 345 350 348 349 345 342 339 335 333 332 329 324 322 324 324 324 324 325 324 328 329 336 338 341 342
315 314 316 315 315 315 315 316 316 316 315 316 317 316 316 317 316 316 314 314 313 315 324 345 347 349 348 347 345 343 340 338 333 334 333 328 323 323 325 325 326 330 326 329 335 337 338 340 340
316 317 316 316 315 315 316 316 316 316 315 316 317 316 316 316 317 316 316 314 313 313 316 329 346 349 348 348 346 343 340 338 336 333 334 331 325 323 324 328 333 331 334 337 338 339 338 340 340
316 316 316 316 316 316 316 316 316 315 315 316 316 316 316 316 317 317 317 314 313 313 314 320 332 341 346 347 348 345 340 339 338 334 334 332 326 323 325 334 339 338 339 338 338 341 339 340 340
314 315 316 316 315 316 316 316 316 316 315 316 316 316 316 316 317 317 317 316 314 314 314 318 329 336 343 345 348 347 343 339 337 335 335 333 326 323 333 337 339 340 340 338 337 337 338 338 342
314 316 316 315 315 315 316 317 316 316 317 316 316 316 316 316 316 316 316 317 315 314 314 320 331 340 337 339 335 336 339 340 337 337 335 333 327 324 336 337 338 339 340 339 337 337 337 342 341
314 317 318 316 316 316 317 319 318 317 317 316 316 316 316 316 316 317 317 316 317 314 315 319 329 342 337 336 336 336 344 343 339 338 335 333 327 324 331 339 340 338 339 335 334 337 341 341 341
317 316 317 317 318 318 317 322 318 318 318 317 317 317 316 316 316 317 317 317 316 317 316 316 322 333 340 336 334 333 336 345 339 338 333 330 325 323 337 341 341 341 338 336 336 339 341 340 338
316 316 315 315 317 316 316 319 316 316 317 317 317 317 316 316 316 316 316 316 316 317 317 316 315 320 328 332 338 341 343 344 338 338 333 331 324 324 340 342 341 338 338 337 338 340 339 339 340
316 314 315 315 315 317 317 317 316 316 317 318 318 317 316 316 316 316 316 316 316 316 317 316 315 316 327 338 342 344 342 342 338 338 334 331 324 328 340 342 340 339 338 338 338 339 341 338 334
314 316 319 320 318 319 316 317 317 317 317 317 318 317 316 316 316 316 316 316 316 317 316 316 317 316 317 340 342 341 337 341 338 338 333 327 326 328 336 341 340 340 339 338 339 340 335 333 330
314 315 318 321 319 317 315 316 315 315 315 315 315 315 316 316 315 315 316 316 316 316 315 316 318 317 316 322 341 339 340 339 337 335 331 328 331 329 335 340 341 341 340 340 339 334 332 329 324
316 318 315 318 317 317 315 315 315 315 315 316 316 315 316 315 316 315 314 314 315 315 316 316 317 316 317 316 335 341 340 341 340 336 332 333 337 337 338 342 342 341 340 338 334 331 329 326 317
315 314 320 318 320 318 315 315 315 315 315 315 316 317 316 317 316 316 316 316 315 315 316 316 315 318 317 317 320 340 332 339 341 338 337 339 339 340 340 342 342 340 337 334 332 328 323 317 315
315 318 316 317 319 319 317 315 315 315 316 316 315 316 315 315 315 315 315 315 316 318 316 316 316 316 326 321 318 326 337 336 339 339 338 337 335 339 340 342 341 338 334 331 327 321 316 314 312
315 316 316 319 318 318 317 317 314 315 316 315 314 313 313 313 312 312 313 314 315 316 319 317 316 316 318 320 317 320 338 340 340 338 339 339 340 339 340 341 337 333 329 325 322 316 315 312 313
Wind_Speed
1 6 6 4 3 2 3 1 2 2 1 4 10 6 5 9 5 8 7 15 6 24 35 33 30 28 28 25 23 20 23 25 23 21 21 20 22 25 25 25 24 23 22 19 18 15 13 13 13
3 8 6 3 3 4 3 1 3 4 7 12 8 4 3 2 8 14 17 17 10 25 35 34 31 30 29 26 23 20 22 24 24 22 21 21 22 25 25 25 24 21 18 17 15 14 12 12 12
6 9 3 2 3 7 2 4 4 7 5 10 7 4 5 7 15 17 19 18 14 29 36 34 33 31 29 26 22 20 22 24 24 22 22 21 21 24 24 23 22 19 17 16 14 12 12 12 12
6 4 4 3 9 2 1 4 4 5 5 9 9 4 5 6 22 19 20 10 12 29 36 34 33 32 30 26 22 20 21 24 25 24 23 22 22 23 24 22 20 17 17 15 13 12 12 11 11
7 3 2 3 5 3 2 2 4 5 3 9 13 8 15 11 22 16 13 5 15 29 33 34 34 32 29 26 22 19 20 22 24 24 24 23 22 23 24 22 19 17 16 14 12 11 11 10 10
2 1 3 8 6 3 3 2 2 4 5 11 11 14 6 16 22 20 11 6 15 27 32 34 34 31 29 27 23 20 19 21 23 24 24 23 22 23 23 21 18 17 15 13 12 11 11 9 9
2 1 1 1 2 2 1 3 0 9 11 9 12 10 7 12 18 21 15 4 11 25 29 33 34 31 28 26 23 20 19 20 22 23 23 23 22 23 23 20 18 17 14 12 11 11 10 10 8
4 2 3 2 3 4 3 12 10 9 11 8 5 3 6 11 13 15 17 8 7 18 23 31 33 32 29 26 24 21 20 20 21 22 22 22 23 23 22 19 18 15 13 12 12 11 10 9 8
3 2 3 2 3 1 8 9 10 9 11 13 11 12 12 12 9 10 13 10 9 17 23 26 31 32 30 27 25 22 21 20 21 22 22 22 23 24 23 20 17 14 13 12 12 11 9 8 7
3 1 2 1 4 5 9 10 13 8 9 11 17 15 15 11 9 11 10 8 11 17 19 22 28 32 31 28 27 25 24 23 23 24 24 24 23 24 23 19 17 14 13 12 12 11 9 8 8
1 2 1 8 4 4 13 15 8 10 8 9 13 12 8 12 11 11 11 9 11 15 19 23 25 28 30 30 29 28 26 25 25 24 24 24 24 23 21 19 18 16 14 12 11 10 11 11 8
4 4 5 5 16 16 15 14 14 18 18 16 14 15 18 13 12 15 14 11 12 15 17 25 24 29 30 28 30 30 29 28 27 25 25 26 25 24 22 20 17 15 13 12 11 11 11 12 8
3 4 9 16 20 19 19 20 20 20 24 20 19 18 17 18 19 20 17 16 14 14 18 23 31 31 31 32 32 31 31 29 27 26 26 26 26 23 21 19 17 15 12 11 10 11 12 11 9
4 12 19 15 13 10 8 13 5 13 16 11 12 13 16 20 21 18 17 20 18 16 17 26 29 34 35 36 36 34 32 31 29 28 26 26 25 23 21 19 17 14 12 12 12 12 13 10 8
9 10 12 6 5 11 3 9 8 10 13 20 14 15 13 14 16 15 16 19 20 17 20 25 31 34 39 36 37 36 36 34 32 29 27 26 25 24 21 19 17 15 14 13 13 12 11 10 10
7 4 11 10 14 7 8 21 10 18 6 12 19 17 15 19 16 14 14 16 19 20 22 27 29 34 38 41 38 37 36 36 34 31 28 26 25 25 22 20 18 16 15 14 13 12 11 12 12
5 14 20 21 7 14 11 20 15 19 24 22 19 20 18 19 16 12 9 15 18 20 23 28 31 34 35 39 40 37 36 37 35 33 29 26 25 25 23 21 19 18 17 15 13 12 13 13 13
23 23 22 24 21 21 24 26 23 28 22 22 22 21 19 18 20 15 13 12 18 20 23 25 31 32 34 40 39 36 32 34 35 33 30 27 26 27 26 24 20 18 16 15 14 13 13 12 11
16 20 25 26 22 25 24 26 25 25 26 23 25 23 23 22 21 19 16 11 15 20 23 25 30 37 36 34 42 41 36 35 35 34 31 28 29 29 27 25 22 18 18 15 13 15 13 13 13
16 20 26 24 18 17 22 29 27 21 27 29 31 30 27 24 22 23 19 15 16 20 22 26 32 34 38 38 36 39 44 36 32 33 32 30 30 31 29 26 24 20 18 16 15 16 14 15 13
14 16 18 19 19 17 20 31 23 21 23 25 28 29 28 27 24 23 24 22 19 20 21 23 31 33 34 39 43 36 32 32 35 37 36 35 32 33 32 27 23 20 16 15 14 17 15 13 12
13 6 10 17 16 13 9 17 18 20 20 17 21 22 24 24 23 22 22 24 27 23 20 21 26 33 37 42 40 45 36 40 43 40 38 35 33 35 32 26 25 21 17 15 16 16 17 13 12
12 11 16 17 18 17 19 11 10 10 15 18 15 16 16 18 20 22 22 25 31 32 27 23 21 28 33 36 40 37 38 42 43 41 40 37 36 37 35 29 25 21 18 19 17 16 14 12 14
9 14 21 14 8 8 18 16 12 8 8 9 3 4 3 7 12 17 18 20 26 36 34 30 26 25 29 31 35 38 39 47 44 42 41 40 38 39 35 28 25 22 21 22 17 14 14 12 13
8 13 6 3 3 6 3 9 14 20 20 14 13 15 6 3 7 11 15 17 23 34 38 35 31 28 25 31 33 35 40 39 41 40 43 42 40 40 37 32 26 25 22 21 17 14 13 12 11
21 8 5 6 5 12 12 9 5 9 13 16 17 10 1 5 6 9 15 16 18 25 28 37 34 31 28 27 33 29 41 42 43 40 41 40 39 38 38 33 27 27 26 19 16 13 15 14 11
2 6 2 6 12 8 6 9 16 8 7 3 9 7 5 7 9 11 5 11 16 21 25 30 33 33 31 28 32 37 36 42 42 40 39 39 39 38 38 34 33 31 22 17 17 17 18 13 10
12 1 4 4 5 6 6 11 11 17 13 2 5 9 9 9 9 10 9 6 7 14 22 27 29 34 33 28 27 35 33 38 40 38 39 33 39 39 40 37 33 27 21 20 18 20 17 12 9
6 3 5 4 5 6 11 8 6 14 12 8 10 6 6 9 11 12 13 12 8 10 14 26 29 32 29 31 29 33 31 33 40 38 38 32 32 40 38 36 33 27 25 22 22 19 15 10 8
15 15 10 6 7 8 9 13 17 18 15 7 5 6 8 11 14 17 15 18 16 12 13 19 29 30 31 32 30 25 39 33 45 40 39 34 36 38 39 37 32 29 28 27 23 19 13 11 10
Wind_Direction
221 159 155 145 209 275 239 228 311 63 352 306 305 254 297 314 276 304 303 340 259 199 184 184 184 183 181 180 178 184 179 175 173 171 169 172 171 168 166 165 162 159 159 162 163 161 157 151 152
171 149 142 111 213 219 213 316 91 355 333 321 322 297 259 312 5 320 334 326 228 198 186 185 182 184 182 181 181 189 182 180 180 178 178 176 173 170 170 169 167 163 164 163 164 163 160 157 161
163 158 149 153 196 227 195 143 19 335 350 9 343 342 354 345 337 329 319 322 227 196 189 187 183 183 184 184 188 189 186 185 185 186 185 179 175 173 173 171 171 170 169 167 167 163 164 165 168
152 139 67 224 224 216 107 133 340 351 355 4 347 318 356 32 349 335 326 310 222 191 188 187 185 185 185 187 192 192 190 189 189 189 188 182 178 177 176 175 172 171 170 167 166 165 167 173 176
158 128 167 214 238 276 249 277 329 23 1 334 343 331 325 337 352 349 340 260 198 189 187 187 187 187 187 190 195 195 194 192 191 189 188 185 182 180 178 177 175 173 171 168 172 173 176 180 186
121 115 204 228 230 247 256 259 226 12 324 320 319 325 309 359 352 352 339 245 200 191 187 189 188 188 190 192 195 196 197 196 195 193 191 188 185 182 180 180 179 175 172 171 175 183 183 188 195
124 170 249 306 295 262 247 333 350 336 310 298 321 306 293 339 355 349 339 287 210 195 190 190 188 189 192 195 196 197 198 198 197 197 193 189 186 185 184 183 179 174 171 173 180 189 190 191 199
90 78 141 198 208 251 296 324 314 302 293 291 290 265 314 327 346 343 337 300 206 193 193 193 191 190 191 194 195 197 200 198 196 194 193 190 187 188 188 187 186 184 182 182 187 195 199 194 193
101 175 184 201 200 273 331 331 317 302 262 276 247 284 300 310 339 334 328 319 200 198 194 197 191 194 194 195 195 196 197 195 192 190 191 190 189 190 191 194 195 195 193 191 195 202 201 193 183
35 263 186 269 308 295 313 309 313 306 289 270 270 270 268 287 305 324 328 309 212 203 197 197 198 195 195 197 197 196 195 192 192 192 192 193 194 194 196 196 201 203 202 202 204 206 201 186 176
39 281 238 287 237 272 301 291 294 285 276 289 292 276 274 279 289 304 302 290 243 216 206 203 203 202 196 198 200 199 197 195 195 196 194 194 195 195 198 200 203 203 205 209 209 206 197 182 172
282 299 271 280 296 289 281 285 275 272 273 280 288 282 286 263 283 297 289 270 249 231 224 220 209 211 202 201 202 204 202 200 199 198 197 195 195 197 197 198 201 201 205 208 206 203 191 180 184
208 288 284 286 282 285 274 261 259 268 273 277 278 274 267 259 280 285 275 258 238 234 219 223 216 212 215 207 206 207 207 206 205 202 201 199 198 196 197 199 198 203 204 203 193 187 178 181 193
274 293 292 289 284 268 278 290 251 252 270 294 285 287 274 266 274 276 265 258 242 230 220 212 221 222 213 214 211 211 211 210 208 207 207 204 201 199 198 197 201 205 201 191 177 176 177 179 190
294 299 311 225 292 313 274 269 239 271 295 294 276 290 283 288 288 283 256 252 245 234 215 213 217 220 219 218 213 213 215 212 211 210 211 209 205 202 200 200 205 201 195 182 175 179 185 191 202
301 274 307 302 302 273 309 284 263 294 278 282 286 286 291 293 290 292 252 239 237 234 224 212 218 217 216 219 216 213 216 215 213 213 214 211 209 206 202 202 202 198 189 182 185 189 197 207 220
271 289 298 302 283 296 271 292 285 281 282 283 276 285 285 288 283 283 298 241 231 230 232 220 217 213 217 219 216 216 214 216 214 215 216 214 210 208 203 202 191 182 180 182 192 204 210 221 220
300 294 290 285 294 285 282 280 282 278 271 267 272 272 274 277 269 276 282 254 233 235 230 232 218 217 217 218 210 215 216 218 217 216 217 215 212 208 204 197 190 186 184 188 191 195 207 213 216
295 290 285 284 285 287 282 279 278 279 274 266 268 264 263 264 266 269 261 265 251 235 227 230 215 208 207 210 211 212 215 215 216 216 216 217 214 205 198 196 197 194 189 193 200 210 220 221 215
293 291 284 284 288 280 284 276 278 276 271 269 265 262 254 254 251 253 249 247 238 243 227 225 224 213 214 206 215 221 215 212 215 217 216 216 214 206 201 201 203 198 197 197 210 222 223 216 212
303 289 294 296 307 281 279 276 276 273 264 264 258 252 250 243 237 237 235 232 232 243 243 230 227 215 218 216 210 214 208 215 217 213 216 213 211 207 207 202 198 197 202 207 207 213 217 221 230
294 302 298 302 306 298 335 287 290 286 276 262 252 245 240 234 234 233 238 235 224 230 236 241 232 226 217 214 216 225 228 218 216 212 214 213 210 206 204 203 199 198 203 206 208 208 213 229 247
289 302 307 299 283 291 262 263 278 287 277 272 268 259 242 240 236 240 239 240 233 223 233 234 239 238 231 230 228 230 226 219 214 213 213 211 207 204 202 200 199 198 202 205 206 211 222 237 253
293 306 304 289 277 257 277 244 287 293 280 302 325 23 285 243 245 244 238 229 224 224 225 232 231 241 234 229 221 225 223 214 211 214 212 210 204 202 202 202 201 198 200 203 203 212 227 241 237
278 322 302 256 218 264 329 308 259 279 279 279 293 323 336 289 270 255 245 234 225 221 225 227 225 228 239 227 214 209 217 228 218 213 212 207 203 202 201 200 199 198 200 201 202 208 227 210 195
288 266 272 297 290 301 294 263 266 278 295 292 295 294 95 20 337 279 252 247 233 227 227 230 227 224 232 231 217 200 195 213 214 215 216 209 206 203 198 195 198 201 195 193 199 204 194 176 183
313 220 295 271 257 268 241 267 286 309 281 333 36 52 82 53 19 10 337 246 237 231 232 233 234 233 233 236 219 203 201 208 214 212 215 213 206 201 196 194 194 194 195 192 187 185 181 174 175
241 124 258 209 274 259 259 273 275 289 284 19 42 68 57 35 8 3 5 358 270 248 230 232 235 234 237 235 237 212 201 210 216 215 209 207 206 201 196 195 192 191 186 182 178 178 171 171 165
272 230 232 275 239 277 281 271 267 276 276 302 344 87 346 334 330 333 339 341 333 277 247 235 235 237 231 231 231 230 215 212 217 216 214 217 216 207 203 196 192 187 179 174 172 171 159 164 151
258 263 259 255 263 248 280 271 268 269 276 299 326 333 332 314 316 313 313 313 316 308 268 257 236 234 236 234 233 229 202 207 211 212 219 219 209 202 202 191 184 179 172 167 166 162 154 151 135